(346687) = 2003 UM84 = 2008 YY84

Discovered at Bergisch Gladba on 2008-12-27 by W. Bickel.

Orbit

Orbit type: Main Belt

Note: WebGL enabled browser required.

epoch2023-09-13.0
epoch JD2460200.5
perihelion date2022-01-16.08073
perihelion JD2459595.58073
argument of perihelion (°)316.85645
ascending node (°)168.09089
inclination (°)1.73254
eccentricity0.0346328
perihelion distance (AU)2.5522529
Tisserand w.r.t. Jupiter3.4
ΔV w.r.t. Earth (km/sec)10.0
semimajor axis (AU)2.6438156
mean anomaly (°)138.69300
mean daily motion (°/day)0.22927520
aphelion distance (AU)2.735
period (years)4.3
P-vector [x]-0.57288778
P-vector [y]0.75998403
P-vector [z]0.30695905
Q-vector [x]-0.81961007
Q-vector [y]-0.53403060
Q-vector [z]-0.20748653
absolute magnitude17.3
phase slope0.15
uncertainty0
referenceMPEC 2023-N34
observations used262
oppositions14
arc length (days)8138
first opposition used2001
last opposition used2023
residual rms (arc-secs)0.70
perturbers coarse indicatorM-v
perturbers precise indicator003Ek
first observation date used2001-03-26.0
last observation date used2023-07-07.0
computer nameMPCLINUX
JD of orbit computation2456789.161015
perihelion JD uncertainty (days)5.1883E-04
argument of perihelion uncertainty (°)2.0911E-04
ascending node uncertainty (°)1.7009E-04
inclination uncertainty (°)5.9588E-06
eccentricity uncertainty 4.8915E-08
perihelion distance uncertainty (AU)1.2296E-07
Minimum Orbit Intersection Distances (in AU)
for orbit epoch: 2460000.5, reference: E2023-M76
Mercury2.1944
Venus1.83667
Earth1.56836
Mars0.89967
Jupiter2.2628
Saturn6.48787
Uranus15.8647
Neptune27.1845

Observations

270 total observations over interval: 2001 03 26.30642 – 2023 07 07.352793
These data are available for download (format description).

Date (UT) J2000 RA J2000 Dec Magn Location Ref
2001 03 26.30642 12 24 19.28 -01 41 56.9 20.9 V 691 – Steward Observatory, Kitt Peak-Spacewatch MPS 272833
2001 03 26.32721 12 24 18.21 -01 41 49.5 21.3 V 691 – Steward Observatory, Kitt Peak-Spacewatch MPS 272833
2001 03 26.34825 12 24 17.11 -01 41 41.3 21.1 V 691 – Steward Observatory, Kitt Peak-Spacewatch MPS 272833
2003 10 18.36094 02 28 49.33 +12 38 08.7 21.2 V 291 – LPL/Spacewatch II MPS 89681
2003 10 18.38453 02 28 48.11 +12 38 02.3 21.4 V 291 – LPL/Spacewatch II MPS 89681
2003 10 18.43249 02 28 45.68 +12 37 48.6 21.6 V 291 – LPL/Spacewatch II MPS 89681
2003 10 21.18302 02 26 28.42 +12 24 37.0 21.4 V 691 – Steward Observatory, Kitt Peak-Spacewatch MPS 89681
2003 10 21.20984 02 26 27.03 +12 24 29.3 21.7 V 691 – Steward Observatory, Kitt Peak-Spacewatch MPS 89681
2003 10 21.23623 02 26 25.64 +12 24 21.7 21.9 V 691 – Steward Observatory, Kitt Peak-Spacewatch MPS 89681
2005 02 09.41518 10 21 33.73 +09 14 08.8 19.5 R G96 – Mt. Lemmon Survey MPS 272833
2005 02 09.42571 10 21 33.29 +09 14 12.9 19.8 R G96 – Mt. Lemmon Survey MPS 272833
2005 02 09.43620 10 21 32.68 +09 14 16.3 20.1 R G96 – Mt. Lemmon Survey MPS 272833
2005 02 09.44673 10 21 32.17 +09 14 19.5 20.4 R G96 – Mt. Lemmon Survey MPS 272833
2005 03 08.27662 09 58 54.11 +11 40 14.6 20.1 R G96 – Mt. Lemmon Survey MPS 272833
2005 03 08.28267 09 58 53.86 +11 40 16.5 20.1 R G96 – Mt. Lemmon Survey MPS 272833
2005 03 08.28873 09 58 53.51 +11 40 18.2 20.1 R G96 – Mt. Lemmon Survey MPS 272833
2005 03 08.29478 09 58 53.29 +11 40 19.9 20.1 R G96 – Mt. Lemmon Survey MPS 272833
2007 09 10.37941 00 29 57.15 +02 37 17.5 20.9 V G96 – Mt. Lemmon Survey MPS 272833
2007 09 10.38756 00 29 56.83 +02 37 15.4 21.2 V G96 – Mt. Lemmon Survey MPS 272833
2007 09 10.39565 00 29 56.47 +02 37 12.8 21.4 V G96 – Mt. Lemmon Survey MPS 272833
2007 09 10.40370 00 29 56.11 +02 37 10.7 20.9 V G96 – Mt. Lemmon Survey MPS 272833
2008 12 27.07071 08 08 52.87 +17 48 39.2   621 – Bergisch Gladbach MPS 271884
2008 12 27.08322 08 08 52.25 +17 48 40.6   621 – Bergisch Gladbach MPS 271884
2008 12 27.09572 08 08 51.73 +17 48 42.2 20.9 C 621 – Bergisch Gladbach MPS 271884
2008 12 31.01950 08 05 49.30 +17 57 51.3   621 – Bergisch Gladbach MPS 272833
2008 12 31.03201 08 05 48.63 +17 57 53.3   621 – Bergisch Gladbach MPS 272833
2008 12 31.04450 08 05 48.01 +17 57 55.8 20.4 C 621 – Bergisch Gladbach MPS 272833
2009 01 02.35266 08 03 52.02 +18 03 51.0 20.3 V 691 – Steward Observatory, Kitt Peak-Spacewatch MPS 271884
2009 01 02.37106 08 03 51.03 +18 03 53.7 20.4 V 691 – Steward Observatory, Kitt Peak-Spacewatch MPS 271884
2009 01 02.38921 08 03 50.04 +18 03 56.3 20.8 V 691 – Steward Observatory, Kitt Peak-Spacewatch MPS 271884
2009 01 08.33943 07 58 27.85 +18 20 27.8 20.0 V 691 – Steward Observatory, Kitt Peak-Spacewatch MPS 272833
2009 01 08.35755 07 58 26.80 +18 20 31.9 20.4 V 691 – Steward Observatory, Kitt Peak-Spacewatch MPS 272833
2009 01 08.37567 07 58 25.77 +18 20 35.3 20.4 V 691 – Steward Observatory, Kitt Peak-Spacewatch MPS 272833
2009 01 17.34841 07 49 43.32 +18 47 40.1 20.5 V G96 – Mt. Lemmon Survey MPS 272833
2009 01 17.35988 07 49 42.60 +18 47 42.5 20.5 V G96 – Mt. Lemmon Survey MPS 272833
2009 01 17.36696 07 49 42.16 +18 47 43.5 20.4 V G96 – Mt. Lemmon Survey MPS 272833
2009 01 17.37400 07 49 41.73 +18 47 44.9 20.1 V G96 – Mt. Lemmon Survey MPS 272833
2009 02 01.16880 07 35 55.60 +19 31 39.5 20.6 V G96 – Mt. Lemmon Survey MPS 272833
2009 02 01.17426 07 35 55.32 +19 31 40.6 21.2 V G96 – Mt. Lemmon Survey MPS 272833
2009 02 01.17980 07 35 55.03 +19 31 41.4 20.8 V G96 – Mt. Lemmon Survey MPS 272833
2009 02 01.18528 07 35 54.78 +19 31 42.2 20.7 V G96 – Mt. Lemmon Survey MPS 272833
2009 02 14.23271 07 26 58.84 +20 03 19.7 19.6 V G96 – Mt. Lemmon Survey MPS 276578
2009 02 14.24009 07 26 58.48 +20 03 17.9 20.8 V G96 – Mt. Lemmon Survey MPS 276578
2009 02 14.24744 07 26 58.23 +20 03 18.8 21.0 V G96 – Mt. Lemmon Survey MPS 276578
2009 02 14.25470 07 26 58.02 +20 03 19.9 21.0 V G96 – Mt. Lemmon Survey MPS 276578
2011 09 06.46793 22 11 30.494 -10 32 25.60 20.7 i F51 – Pan-STARRS 1, Haleakala MPS 391216
2011 09 06.47850 22 11 29.965 -10 32 28.76 20.9 i F51 – Pan-STARRS 1, Haleakala MPS 391216
2012 11 23.39744 05 41 25.07 +20 39 48.1 21.0 V 691 – Steward Observatory, Kitt Peak-Spacewatch MPS 443454
2012 11 23.42248 05 41 23.88 +20 39 46.9 20.6 V 691 – Steward Observatory, Kitt Peak-Spacewatch MPS 443454
2012 11 23.43266 05 41 23.39 +20 39 46.1 20.8 V 691 – Steward Observatory, Kitt Peak-Spacewatch MPS 443454
2013 01 18.19854 04 55 27.66 +20 07 35.9 21.0 V G96 – Mt. Lemmon Survey MPS 452256
2013 01 18.20440 04 55 27.58 +20 07 36.4 20.8 V G96 – Mt. Lemmon Survey MPS 452256
2013 01 18.21021 04 55 27.40 +20 07 36.8 21.2 V G96 – Mt. Lemmon Survey MPS 452256
2013 01 18.21600 04 55 27.33 +20 07 36.3 20.4 V G96 – Mt. Lemmon Survey MPS 452256
2014 03 04.52191 13 29 17.945 -08 21 08.98 21.0 w F51 – Pan-STARRS 1, Haleakala MPS 505329
2014 03 04.54776 13 29 17.382 -08 21 04.70 21.3 w F51 – Pan-STARRS 1, Haleakala MPS 505329
2014 03 04.56068 13 29 17.114 -08 21 02.54 21.2 w F51 – Pan-STARRS 1, Haleakala MPS 505329
2014 04 29.30837 12 50 25.026 -03 44 51.63 21.1 w F51 – Pan-STARRS 1, Haleakala MPS 513723
2014 04 29.32032 12 50 24.578 -03 44 48.63 21.1 w F51 – Pan-STARRS 1, Haleakala MPS 513723
2014 04 29.32098 12 50 24.523 -03 44 48.41 21.3 w F51 – Pan-STARRS 1, Haleakala MPS 513723
2014 04 29.33230 12 50 24.103 -03 44 45.78 21.3 w F51 – Pan-STARRS 1, Haleakala MPS 513723
2014 04 29.33295 12 50 24.057 -03 44 45.46 21.2 w F51 – Pan-STARRS 1, Haleakala MPS 513723
2014 04 29.34427 12 50 23.641 -03 44 42.82 21.2 w F51 – Pan-STARRS 1, Haleakala MPS 513723
2014 04 29.34493 12 50 23.586 -03 44 42.39 21.3 w F51 – Pan-STARRS 1, Haleakala MPS 513723
2015 06 18.55294 20 44 37.840 -16 00 01.11 21.5 w F51 – Pan-STARRS 1, Haleakala MPS 612496
2015 06 18.56493 20 44 37.574 -16 00 01.69 21.5 w F51 – Pan-STARRS 1, Haleakala MPS 612496
2015 06 18.57689 20 44 37.328 -16 00 02.52 21.5 w F51 – Pan-STARRS 1, Haleakala MPS 612496
2015 06 22.55656 20 43 10.754 -16 04 47.42 20.8 w F51 – Pan-STARRS 1, Haleakala MPS 614067
2015 06 22.56834 20 43 10.431 -16 04 49.38 21.5 w F51 – Pan-STARRS 1, Haleakala MPS 614067
2015 06 22.58010 20 43 10.120 -16 04 50.34 21.6 w F51 – Pan-STARRS 1, Haleakala MPS 614067
2015 06 23.51701 20 42 46.415 -16 06 12.16 21.7 w F51 – Pan-STARRS 1, Haleakala MPS 614067
2015 06 23.52870 20 42 46.091 -16 06 13.30 21.3 w F51 – Pan-STARRS 1, Haleakala MPS 614067
2015 06 23.54036 20 42 45.748 -16 06 14.60 21.6 w F51 – Pan-STARRS 1, Haleakala MPS 614067
2015 06 26.49602 20 41 22.425 -16 11 08.13 21.4 w F51 – Pan-STARRS 1, Haleakala MPS 614568
2015 06 26.50794 20 41 22.057 -16 11 09.17 21.5 w F51 – Pan-STARRS 1, Haleakala MPS 614568
2015 06 26.53174 20 41 21.273 -16 11 11.81 21.8 w F51 – Pan-STARRS 1, Haleakala MPS 614568
2015 08 10.37311 20 05 29.701 -18 27 30.74 21.2 w F51 – Pan-STARRS 1, Haleakala MPS 621004
2015 08 10.38411 20 05 29.149 -18 27 32.93 21.1 w F51 – Pan-STARRS 1, Haleakala MPS 621004
2015 08 10.39510 20 05 28.597 -18 27 35.00 21.1 w F51 – Pan-STARRS 1, Haleakala MPS 621004
2015 08 10.40611 20 05 28.047 -18 27 37.06 21.1 w F51 – Pan-STARRS 1, Haleakala MPS 621004
2015 08 11.32357 20 04 44.815 -18 30 27.65 21.1 w F51 – Pan-STARRS 1, Haleakala MPS 621004
2015 08 11.33455 20 04 44.268 -18 30 29.56 21.2 w F51 – Pan-STARRS 1, Haleakala MPS 621004
2015 08 11.34555 20 04 43.729 -18 30 31.69 21.3 w F51 – Pan-STARRS 1, Haleakala MPS 621004
2015 08 11.35653 20 04 43.206 -18 30 33.71 21.2 w F51 – Pan-STARRS 1, Haleakala MPS 621004
2015 08 12.41462 20 03 54.017 -18 33 47.37 21.0 w F51 – Pan-STARRS 1, Haleakala MPS 621004
2015 08 12.42565 20 03 53.490 -18 33 49.36 21.4 w F51 – Pan-STARRS 1, Haleakala MPS 621004
2015 08 12.43667 20 03 52.961 -18 33 51.26 21.1 w F51 – Pan-STARRS 1, Haleakala MPS 621004
2015 08 12.44767 20 03 52.444 -18 33 53.17 21.1 w F51 – Pan-STARRS 1, Haleakala MPS 621004
2015 08 17.34298 20 00 21.080 -18 48 02.65 21.5 w F51 – Pan-STARRS 1, Haleakala MPS 623177
2015 08 17.35405 20 00 20.613 -18 48 04.77 21.2 w F51 – Pan-STARRS 1, Haleakala MPS 623177
